{"data":{"norad_id":65494,"intl_designator":"2025-198C","name":"STARLINK-35223","alt_names":[],"object_type":"PAYLOAD","status":"ACTIVE","operator":null,"country":"US","launch_date":"2025-09-05","launch_site_code":"AFETR","launch_vehicle":null,"mission":null,"orbit_class":"UNKNOWN","rcs_meters":null,"size_class":null,"mass_kg":null,"dimensions":null,"purposes":["comms"],"wikipedia_slug":null,"has_3d_model":false,"image_url":null,"decayed_at":null,"tle_current":{"epoch":"2026-09-20T22:19:22.437120Z","epoch_age_seconds":74817,"freshness":"FRESH","line1":"1 65494U 25198C   26263.93012080  .00016001  00000+0  48338-3 0  9991","line2":"2 65494  53.1577  79.7724 0000685 152.2719 207.8320 15.34421074 58578","mean_motion":15.34421074,"eccentricity":6.85e-5,"inclination_deg":53.1577,"raan_deg":79.7724,"arg_perigee_deg":152.2719,"mean_anomaly_deg":207.832,"bstar":0.00048338,"rev_number":5857,"period_min":93.846469160264,"perigee_km":462.17201128893,"apogee_km":463.10919782076,"semimajor_km":6840.7776045548,"source":"CELESTRAK","updated_at":"2026-09-21T09:00:35.641307Z"}}}